Satellite-Ground Cal/Val Region Overpasses Predictions

Prediction of Satellite NPP Overpassing Cal/Val Region: PacNW

Region Location: (Latitude: 10.00, Longitude: 139.50) to (Latitude: 22.70, Longitude: 165.60).

Table of predicted overpasses for the next 14.0 days since TLE Epoch: 1/18/2014
Interval Starting Time Starting Location Ending Time Ending Location
1 01/19/2014 02:35:46 ( 10.04, 161.41) 01/19/2014 02:39:21 ( 22.66, 158.40)
2 01/19/2014 15:07:39 ( 22.70, 158.68) 01/19/2014 15:11:15 ( 10.02, 155.66)
3 01/20/2014 02:17:28 ( 12.53, 165.59) 01/20/2014 02:20:21 ( 22.68, 163.15)
4 01/20/2014 03:58:15 ( 10.01, 140.80) 01/20/2014 03:59:50 ( 15.59, 139.50)
5 01/20/2014 14:48:39 ( 22.67, 163.44) 01/20/2014 14:52:14 ( 10.05, 160.42)
6 01/21/2014 03:39:14 ( 10.03, 145.56) 01/21/2014 03:42:49 ( 22.65, 142.54)
7 01/21/2014 14:32:42 ( 11.85, 165.59) 01/21/2014 14:33:13 ( 10.02, 165.17)
8 01/21/2014 16:11:08 ( 22.64, 142.81) 01/21/2014 16:14:43 ( 10.02, 139.80)
9 01/22/2014 03:20:14 ( 10.06, 150.31) 01/22/2014 03:23:49 ( 22.68, 147.29)
10 01/22/2014 15:52:07 ( 22.67, 147.58) 01/22/2014 15:55:42 ( 10.05, 144.57)
11 01/23/2014 03:01:12 ( 10.03, 155.07) 01/23/2014 03:04:47 ( 22.65, 152.06)
12 01/23/2014 15:33:06 ( 22.65, 152.33) 01/23/2014 15:36:41 ( 10.03, 149.32)
13 01/24/2014 02:42:12 ( 10.05, 159.83) 01/24/2014 02:45:47 ( 22.67, 156.81)
14 01/24/2014 15:14:05 ( 22.68, 157.10) 01/24/2014 15:17:40 ( 10.06, 154.08)
15 01/25/2014 02:23:11 ( 10.02, 164.59) 01/25/2014 02:26:46 ( 22.64, 161.58)
16 01/25/2014 14:55:04 ( 22.65, 161.85) 01/25/2014 14:58:39 ( 10.03, 158.84)
17 01/26/2014 03:45:40 ( 10.06, 143.97) 01/26/2014 03:49:15 ( 22.68, 140.96)
18 01/26/2014 14:37:14 ( 18.51, 165.59) 01/26/2014 14:39:38 ( 10.05, 163.60)
19 01/26/2014 16:17:33 ( 22.67, 141.24) 01/26/2014 16:19:34 ( 15.57, 139.51)
20 01/27/2014 03:26:39 ( 10.03, 148.74) 01/27/2014 03:30:14 ( 22.65, 145.72)
21 01/27/2014 15:58:32 ( 22.64, 145.99) 01/27/2014 16:02:07 ( 10.02, 142.98)
22 01/28/2014 03:07:37 ( 10.00, 153.50) 01/28/2014 03:11:13 ( 22.68, 150.47)
23
